Terminal Aerodrome Forecast
Issued by NWS Atlanta, GA

Home | Current Version | Previous Version | Text Only | Print | Product List | Glossary On
Versions: 1 2 3 4 5 6 7 8 9 10 11 12 13 14 15 16 17 18 19 20 21 22 23 24 25 26 27 28 29 30 31 32 33 34 35 36 37 38 39 40 41
000
FTUS42 KFFC 290741 AAA
TAFATL
TAF AMD
KATL 290741Z 2908/3012 24004KT P6SM SKC
     FM291600 30010G15KT P6SM SKC
     FM291800 31012G20KT P6SM FEW060
     FM300000 32010KT P6SM SKC
     FM300600 30005KT P6SM SKC=

USA.gov is the U.S. government's official web portal to all federal, state and local government web resources and services.